This is the latest recevied weather packets stored in our database for station/object KE4EST. If no packets are shown the sender has not sent any weather packets the latest 10 day(s).
| Time | Temp. | Humidity | Pressure | Rain* | Wind** | Luminosity | Snow |
|---|---|---|---|---|---|---|---|
| 1777555178 | 12.78° C | 98% | 1012.3 hPa | 0 mm | - | 35 W/m² | - |
| 1777554876 | 12.78° C | 98% | 1012.1 hPa | 0 mm | - | 40 W/m² | - |
| 1777554572 | 12.22° C | 98% | 1012.1 hPa | 0 mm | - | 28 W/m² | - |
| 1777554270 | 12.22° C | 99% | 1012.4 hPa | 0 mm | - | 28 W/m² | - |
| 1777553967 | 12.22° C | 99% | 1012.1 hPa | 0 mm | - | 27 W/m² | - |
| 1777553663 | 11.67° C | 99% | 1012.1 hPa | 0 mm | - | 27 W/m² | - |
| 1777553360 | 12.22° C | 99% | 1011.8 hPa | 0 mm | - | 26 W/m² | - |
| 1777553055 | 12.22° C | 99% | 1011.8 hPa | 0 mm | - | 31 W/m² | - |
| 1777552750 | 12.22° C | 99% | 1011.9 hPa | 0 mm | - | 25 W/m² | - |
| 1777552447 | 12.22° C | 99% | 1011.9 hPa | 0 mm | - | 28 W/m² | - |
| 1777552143 | 12.22° C | 99% | 1012.2 hPa | 0 mm | - | 23 W/m² | - |
| 1777551840 | 12.22° C | 99% | 1012.1 hPa | 0 mm | - | 23 W/m² | - |
| 1777551538 | 12.22° C | 99% | 1012.1 hPa | 0 mm | - | 22 W/m² | - |
| 1777551234 | 12.22° C | 99% | 1011.9 hPa | 0 mm | - | 21 W/m² | - |
| 1777550931 | 12.22° C | 99% | 1011.9 hPa | 0 mm | - | 21 W/m² | - |
| 1777550628 | 12.22° C | 99% | 1011.7 hPa | 0 mm | - | 21 W/m² | - |
| 1777550324 | 12.22° C | 99% | 1011.6 hPa | 0 mm | - | 33 W/m² | - |
| 1777550020 | 12.22° C | 99% | 1011.5 hPa | 0 mm | - | 25 W/m² | - |
| 1777549718 | 12.22° C | 99% | 1011.3 hPa | 0 mm | - | 25 W/m² | - |
| 1777549413 | 12.22° C | 99% | 1011.3 hPa | 0 mm | - | 19 W/m² | - |
| 1777549110 | 12.22° C | 99% | 1011.4 hPa | 0 mm | - | 29 W/m² | - |
| 1777548806 | 12.22° C | 99% | 1011.2 hPa | 0 mm | - | 13 W/m² | - |
| 1777548504 | 12.22° C | 99% | 1011.2 hPa | 0 mm | - | 13 W/m² | - |
| 1777548200 | 12.22° C | 99% | 1011.2 hPa | 0 mm | - | 8 W/m² | - |
| 1777547897 | 12.22° C | 99% | 1011.3 hPa | 0 mm | - | 6 W/m² | - |
* Rain latest hour (hover to see other rain measurements)
** Current wind speed in m/s (hover to see current wind gust speed)